Home > Weather > Krishnagiri > Past weeks

Flag for India Past Weather in Krishnagiri, Tamil Nadu, India — Yesterday and Last 2 Weeks

Now
77 °F

Broken clouds.


Feels Like: 79 °F
Forecast: 73 / 87 °F
Wind: 14 mph from West

Location: Bangalore / Hindustan

Current Time: Aug 28, 2016 at 12:50:34 PM

Latest Report: Aug 28, 2016 at 12:00 PM


Visibility: 5 mi

Pressure: 29.92 "Hg

Humidity: 69%

Dew Point: 66 °F

Location of KrishnagiriLocation

Past Weather in Krishnagiri — Graph

°F

Krishnagiri Temperature Yesterday

Maximum temperature yesterday: 82 °F (at 3:00 PM)
Minimum temperature yesterday: 70 °F (at 6:30 AM)
Average temperature yesterday: 76 °F

High & Low Weather Summary for the Past Weeks

 TemperatureHumidityPressure
High86 °F (Aug 20, 4:30 PM)94% (Aug 15, 5:30 AM)29.95 "Hg (Aug 15, 5:30 AM)
Low68 °F (Aug 15, 5:30 AM)43% (Aug 20, 4:30 PM)29.77 "Hg (Aug 17, 3:00 PM)
Average77 °F71%29.87 "Hg
* Reported Aug 13 11:30 AM — Aug 28 11:30 AM, Krishnagiri, Weather by CustomWeather, © 2016

Note: Actual official high and low records may vary slightly from our data, if they occured in-between our weather recording intervals... More about our weather records

Advertising

Krishnagiri Weather History for the Previous 24 Hours

Scroll right to see more
 ConditionsComfort  
Time TempWeatherWind HumidityBarometerVisibility
11:30 AM
Sun, Aug 28
77 °FBroken clouds.14 mph69%29.92 "Hg5 mi
11:00 AM77 °FBroken clouds.12 mph69%29.92 "Hg5 mi
10:30 AM75 °FBroken clouds.12 mph74%29.92 "Hg5 mi
10:00 AM73 °FBroken clouds.12 mph78%29.92 "Hg5 mi
9:30 AM73 °FBroken clouds.9 mph78%29.95 "Hg5 mi
9:00 AM73 °FBroken clouds.9 mph78%29.95 "HgN/A
8:30 AM72 °FBroken clouds.9 mph83%29.92 "HgN/A
8:00 AM72 °FBroken clouds.9 mph83%29.92 "HgN/A
7:30 AM70 °FBroken clouds.12 mph88%29.92 "HgN/A
7:00 AM70 °FScattered clouds.12 mph88%29.92 "Hg5 mi
6:30 AM70 °FPassing clouds.12 mph88%29.89 "Hg5 mi
6:00 AM70 °FPassing clouds.12 mph88%29.89 "Hg5 mi
5:30 AM70 °FPassing clouds.9 mph88%29.89 "Hg5 mi
11:30 PM
Sat, Aug 27
72 °FPassing clouds.9 mph88%29.92 "Hg5 mi
10:30 PM72 °FPassing clouds.7 mph88%29.92 "Hg5 mi
9:30 PM72 °FPassing clouds.7 mph88%29.92 "Hg5 mi
8:30 PM73 °FPassing clouds.12 mph89%29.89 "Hg5 mi
7:30 PM73 °FPartly cloudy.12 mph89%29.86 "Hg5 mi
6:30 PM73 °FBroken clouds.5 mph89%29.83 "Hg5 mi
5:30 PM79 °FLight rain. Scattered clouds.9 mph70%29.83 "HgN/A
5:00 PM81 °FScattered clouds.7 mph62%29.80 "HgN/A
4:30 PM81 °FScattered clouds.7 mph62%29.80 "HgN/A
4:00 PM81 °FScattered clouds.5 mph62%29.80 "HgN/A
3:30 PM82 °FScattered clouds.6 mph58%29.80 "HgN/A
3:00 PM82 °FBroken clouds.6 mph58%29.83 "HgN/A
2:30 PM81 °FBroken clouds.8 mph66%29.83 "HgN/A
2:00 PM81 °FScattered clouds.6 mph62%29.83 "HgN/A
1:30 PM81 °FScattered clouds.10 mph66%29.86 "HgN/A
1:00 PM81 °FScattered clouds.12 mph66%29.86 "HgN/A
12:30 PM77 °FScattered clouds.12 mph69%29.89 "HgN/A
12:00 PM77 °FBroken clouds.14 mph69%29.89 "HgN/A
Weather by CustomWeather, © 2016

See weather overviewHow to use our weather pages